Change the Weather History Date:

Saturday, January 19, 2013

  Actual Average Record
Temperature  
Mean Temperature 49 °F -  
Max Temperature 62 °F 60 °F 73 °F (2000)
Min Temperature 36 °F 44 °F 14 °F (1977)
Degree Days  
Heating Degree Days 16    
Moisture  
Dew Point 41 °F    
Average Humidity 79    
Maximum Humidity 97    
Minimum Humidity 49    
Precipitation  
Precipitation 0.00 in - - ()
Sea Level Pressure  
Sea Level Pressure 30.31 in    
Wind  
Wind Speed 4 mph (NE)    
Max Wind Speed 10 mph    
Max Gust Speed -    
Visibility 9 miles    
Events      
Averages and records for this station are not official NWS values.
T = Trace of Precipitation, MM = Missing Value Source: NWS Daily Summary

Daily Weather History Graph

Daily Weather History Graph

Search for Another Location

Airport or City:

Trip Planner

Search our weather history database for the weather conditions in past years. The results will help you decide how hot, cold, wet, or windy it might be!

Date:

Astronomy

Jan. 19, 2013 Rise Set
Actual Time 6:52 AM CST 5:21 PM CST
Civil Twilight 6:27 AM CST 5:47 PM CST
Nautical Twilight 5:57 AM CST 6:16 PM CST
Astronomical Twilight 5:28 AM CST 6:45 PM CST
Moon 11:43 AM CST (1/19) 12:33 AM CST (1/19)
Length of Visible Light 11h 20m
Length of Day
10h 28m
First Quarter, 57% of the Moon is Illuminated
Jan 19
First Quarter
Jan 26
Full
Feb 3
Last Quarter
Feb 10
New
Feb 17
First Quarter

Hourly Weather History & Observations

Time (CST) Temp. Windchill Dew Point Humidity Pressure Visibility Wind Dir Wind Speed Gust Speed Precip Events Conditions
12:53 AM 36.0 °F 33.3 °F 34.0 °F 93% 30.39 in 7.0 mi NW 3.5 mph - N/A   Clear
1:53 AM 36.0 °F 33.3 °F 34.0 °F 93% 30.39 in 8.0 mi NNW 3.5 mph - N/A   Mostly Cloudy
2:53 AM 39.0 °F 36.8 °F 36.0 °F 89% 30.38 in 9.0 mi NW 3.5 mph - N/A   Overcast
3:53 AM 39.9 °F 37.8 °F 36.0 °F 86% 30.37 in 10.0 mi North 3.5 mph - N/A   Overcast
4:53 AM 39.9 °F 36.7 °F 34.0 °F 79% 30.35 in 10.0 mi NNE 4.6 mph - N/A   Partly Cloudy
5:53 AM 39.9 °F 36.7 °F 34.0 °F 79% 30.35 in 10.0 mi NNE 4.6 mph - N/A   Clear
6:53 AM 37.9 °F - 33.1 °F 83% 30.37 in 10.0 mi Calm Calm - N/A   Clear
7:53 AM 41.0 °F 39.0 °F 36.0 °F 82% 30.38 in 10.0 mi NNW 3.5 mph - N/A   Mostly Cloudy
8:53 AM 46.0 °F 43.9 °F 36.0 °F 68% 30.39 in 10.0 mi NNE 4.6 mph - N/A   Partly Cloudy
9:53 AM 52.0 °F - 37.9 °F 59% 30.39 in 10.0 mi ENE 5.8 mph - N/A   Clear
10:53 AM 59.0 °F - 39.9 °F 49% 30.36 in 10.0 mi ENE 8.1 mph - N/A   Clear
11:53 AM 61.0 °F - 43.0 °F 52% 30.32 in 10.0 mi ESE 6.9 mph - N/A   Unknown
12:53 PM 62.1 °F - 44.1 °F 52% 30.29 in 10.0 mi SSE 6.9 mph - N/A   Clear
1:53 PM 59.0 °F - 45.0 °F 60% 30.27 in 10.0 mi SE 10.4 mph - N/A   Clear
2:53 PM 60.1 °F - 44.1 °F 55% 30.26 in 10.0 mi SSE 5.8 mph - N/A   Clear
3:53 PM 59.0 °F - 46.9 °F 64% 30.26 in 10.0 mi SSE 9.2 mph - N/A   Clear
4:53 PM 57.0 °F - 48.0 °F 72% 30.25 in 10.0 mi South 4.6 mph - N/A   Scattered Clouds
5:53 PM 53.1 °F - 48.0 °F 83% 30.25 in 10.0 mi Calm Calm - N/A   Clear
6:53 PM 48.9 °F - 46.9 °F 93% 30.26 in 9.0 mi Calm Calm - N/A   Clear
7:53 PM 46.9 °F - 46.0 °F 97% 30.26 in 7.0 mi Calm Calm - N/A   Clear
8:53 PM 46.0 °F - 45.0 °F 96% 30.26 in 6.0 mi Calm Calm - N/A   Clear
9:53 PM 44.1 °F - 43.0 °F 96% 30.26 in 5.0 mi Calm Calm - N/A   Clear
9:55 PM 44.6 °F - 42.8 °F 93% 30.26 in 10.0 mi Calm Calm - N/A   Clear
10:53 PM 44.1 °F - 43.0 °F 96% 30.27 in 4.0 mi Calm Calm - N/A   Clear
11:53 PM 42.1 °F - 41.0 °F 96% 30.27 in 4.0 mi Calm Calm - N/A   Clear